FW9002 Weather Reports


time (UTC)temp
C
wind
direction
speed
KPH
gust
KPH
rain 1hr
cm
rain 24hr
cm
rain mn
cm
humidity
%
barometer
mb
20240614132624 23 164 0.0 0.0 0.00 0.00 0.00 34 1011.8
20240614132122 23 154 0.0 0.0 0.00 0.00 0.00 33 1011.8
20240614131619 23 161 0.0 0.0 0.00 0.00 0.00 32 1011.7
20240614131119 23 160 0.0 0.0 0.00 0.00 0.00 33 1011.5
20240614130615 22 151 1.6 1.6 0.00 0.00 0.00 33 1011.5
20240614130111 22 163 0.0 0.0 0.00 0.00 0.00 34 1011.5
20240614125601 21 164 0.0 0.0 0.00 0.00 0.00 36 1011.6
20240614125056 21 165 0.0 0.0 0.00 0.00 0.00 36 1011.6
20240614124556 21 162 0.0 0.0 0.00 0.00 0.00 34 1011.3
20240614124054 21 162 0.0 0.0 0.00 0.00 0.00 35 1011.3
20240614123553 21 164 0.0 0.0 0.00 0.00 0.00 35 1011.4
20240614123052 21 161 0.0 0.0 0.00 0.00 0.00 35 1011.3
20240614122548 21 163 0.0 0.0 0.00 0.00 0.00 35 1011.4
20240614122047 21 159 0.0 0.0 0.00 0.00 0.00 35 1011.5
20240614121547 21 151 0.0 0.0 0.00 0.00 0.00 34 1011.7
20240614121045 21 154 0.0 1.6 0.00 0.00 0.00 33 1011.3
20240614120544 21 142 0.0 0.0 0.00 0.00 0.00 33 1011.6
20240614120044 22 169 0.0 0.0 0.00 0.00 0.00 32 1011.3
20240614115544 21 165 0.0 0.0 0.00 0.00 0.00 33 1011.3
20240614115043 21 159 0.0 0.0 0.00 0.00 0.00 33 1011.1
20240614114541 21 163 0.0 0.0 0.00 0.00 0.00 33 1011.2
20240614114041 21 161 0.0 0.0 0.00 0.00 0.00 33 1011.4
20240614113539 21 161 0.0 0.0 0.00 0.00 0.00 33 1011.1
20240614113036 21 164 0.0 0.0 0.00 0.00 0.00 34 1011.1
20240614112534 22 163 0.0 0.0 0.00 0.00 0.00 34 1011.1
20240614112034 22 164 0.0 0.0 0.00 0.00 0.00 33 1011.0
20240614111532 22 162 0.0 0.0 0.00 0.00 0.00 33 1011.0
20240614111030 22 162 0.0 0.0 0.00 0.00 0.00 33 1011.1
20240614110528 22 164 0.0 0.0 0.00 0.00 0.00 33 1011.3
20240614110027 22 163 0.0 0.0 0.00 0.00 0.00 33 1011.4
20240614105525 22 164 0.0 0.0 0.00 0.00 0.00 32 1011.3
20240614105024 22 163 0.0 0.0 0.00 0.00 0.00 32 1010.9
20240614104520 22 164 0.0 0.0 0.00 0.00 0.00 33 1011.0
20240614104020 22 165 0.0 0.0 0.00 0.00 0.00 32 1011.1
20240614103519 22 164 0.0 0.0 0.00 0.00 0.00 30 1011.2
20240614103017 23 164 0.0 0.0 0.00 0.00 0.00 30 1011.0
20240614102513 23 164 0.0 0.0 0.00 0.00 0.00 30 1011.2
20240614102013 23 159 0.0 0.0 0.00 0.00 0.00 30 1011.2
20240614101511 23 165 0.0 0.0 0.00 0.00 0.00 29 1011.1
20240614101011 23 163 0.0 0.0 0.00 0.00 0.00 29 1011.1
20240614100510 23 164 0.0 0.0 0.00 0.00 0.00 29 1011.0
20240614100009 23 166 0.0 0.0 0.00 0.00 0.00 29 1011.3
20240614095507 23 161 0.0 0.0 0.00 0.00 0.00 28 1011.0
20240614095005 23 163 0.0 0.0 0.00 0.00 0.00 28 1010.9
20240614094504 23 163 0.0 0.0 0.00 0.00 0.00 29 1010.9
20240614094003 23 164 0.0 0.0 0.00 0.00 0.00 29 1010.7
20240614093503 23 157 0.0 0.0 0.00 0.00 0.00 29 1011.0
20240614093000 23 162 0.0 0.0 0.00 0.00 0.00 29 1011.0
20240614092459 23 164 0.0 0.0 0.00 0.00 0.00 29 1010.7
20240614091957 24 163 0.0 0.0 0.00 0.00 0.00 28 1011.2
20240614091455 24 165 0.0 0.0 0.00 0.00 0.00 28 1011.0
20240614090953 24 163 0.0 0.0 0.00 0.00 0.00 28 1011.1
20240614090451 24 163 0.0 0.0 0.00 0.00 0.00 28 1011.2
20240614085950 24 163 0.0 0.0 0.00 0.00 0.00 28 1011.2
20240614085448 24 164 0.0 0.0 0.00 0.00 0.00 28 1011.1
20240614084945 25 163 0.0 0.0 0.00 0.00 0.00 28 1011.4
20240614084445 25 163 0.0 0.0 0.00 0.00 0.00 27 1011.4
20240614083944 25 163 0.0 0.0 0.00 0.00 0.00 27 1011.3
20240614083441 25 163 0.0 0.0 0.00 0.00 0.00 26 1011.4
20240614082940 25 164 0.0 0.0 0.00 0.00 0.00 26 1011.3
20240614082439 25 162 0.0 0.0 0.00 0.00 0.00 26 1011.2
20240614081937 25 164 0.0 0.0 0.00 0.00 0.00 26 1011.5
20240614081436 25 164 0.0 0.0 0.00 0.00 0.00 26 1011.6
20240614080935 26 165 0.0 0.0 0.00 0.00 0.00 25 1011.6
20240614080433 25 164 0.0 0.0 0.00 0.00 0.00 25 1011.4
20240614075933 26 161 0.0 0.0 0.00 0.00 0.00 25 1011.5
20240614075432 26 164 0.0 0.0 0.00 0.00 0.00 25 1011.4
20240614074932 26 163 0.0 0.0 0.00 0.00 0.00 25 1011.5
20240614074430 26 163 0.0 0.0 0.00 0.00 0.00 25 1011.4
20240614073929 26 164 0.0 0.0 0.00 0.00 0.00 24 1011.5
20240614073428 27 165 0.0 0.0 0.00 0.00 0.00 24 1011.4
20240614072926 27 165 0.0 0.0 0.00 0.00 0.00 23 1011.2
20240614072426 27 163 0.0 0.0 0.00 0.00 0.00 22 1011.2
20240614071925 27 162 0.0 0.0 0.00 0.00 0.00 22 1011.4
20240614071424 27 167 0.0 0.0 0.00 0.00 0.00 21 1011.4
20240614070923 28 166 0.0 0.0 0.00 0.00 0.00 21 1011.4
20240614070420 28 166 0.0 0.0 0.00 0.00 0.00 20 1011.5
20240614065920 28 165 0.0 0.0 0.00 0.00 0.00 20 1011.3
20240614065419 28 159 0.0 0.0 0.00 0.00 0.00 20 1011.4
20240614064917 28 167 0.0 0.0 0.00 0.00 0.00 20 1011.3
20240614064415 28 174 3.2 3.2 0.00 0.00 0.00 21 1011.3
20240614063913 28 166 0.0 0.0 0.00 0.00 0.00 22 1011.4
20240614063412 28 164 0.0 0.0 0.00 0.00 0.00 22 1011.4
20240614062912 28 163 0.0 0.0 0.00 0.00 0.00 22 1011.6
20240614062411 29 162 0.0 0.0 0.00 0.00 0.00 21 1011.6
20240614061910 30 162 0.0 0.0 0.00 0.00 0.00 21 1011.4
20240614061409 31 172 3.2 3.2 0.00 0.00 0.00 19 1011.4
20240614060908 31 166 0.0 0.0 0.00 0.00 0.00 17 1011.2
20240614060404 31 172 3.2 3.2 0.00 0.00 0.00 16 1011.2
20240614055902 31 262 3.2 8.0 0.00 0.00 0.00 16 1011.3
20240614055401 31 193 4.8 8.0 0.00 0.00 0.00 17 1011.1
20240614054900 31 175 0.0 1.6 0.00 0.00 0.00 17 1011.2
20240614054359 31 168 1.6 1.6 0.00 0.00 0.00 17 1011.2
20240614053859 31 165 0.0 0.0 0.00 0.00 0.00 17 1011.3
20240614053357 31 176 1.6 3.2 0.00 0.00 0.00 17 1011.2
20240614052857 30 167 0.0 0.0 0.00 0.00 0.00 19 1011.4
20240614052355 30 165 0.0 0.0 0.00 0.00 0.00 19 1011.3
20240614051854 30 164 0.0 0.0 0.00 0.00 0.00 18 1011.2
20240614051353 30 165 0.0 0.0 0.00 0.00 0.00 19 1011.3
20240614050851 30 166 0.0 0.0 0.00 0.00 0.00 18 1011.2
20240614050350 31 171 0.0 0.0 0.00 0.00 0.00 18 1011.3
20240614045849 31 123 3.2 8.0 0.00 0.00 0.00 18 1011.3
20240614045348 31 166 0.0 0.0 0.00 0.00 0.00 17 1011.6
20240614044846 31 164 0.0 0.0 0.00 0.00 0.00 17 1011.1
20240614044345 31 168 0.0 1.6 0.00 0.00 0.00 17 1011.2
20240614043845 32 172 0.0 0.0 0.00 0.00 0.00 17 1011.7
20240614043344 32 184 0.0 1.6 0.00 0.00 0.00 18 1011.4
20240614042843 32 172 1.6 3.2 0.00 0.00 0.00 17 1011.6
20240614042342 32 168 1.6 3.2 0.00 0.00 0.00 16 1011.4
20240614041840 32 163 1.6 1.6 0.00 0.00 0.00 17 1011.4
20240614041337 32 164 0.0 1.6 0.00 0.00 0.00 17 1011.3
20240614040836 32 170 1.6 1.6 0.00 0.00 0.00 17 1011.3
20240614040335 31 166 0.0 0.0 0.00 0.00 0.00 18 1011.6
20240614035833 31 182 1.6 1.6 0.00 0.00 0.00 19 1011.3
20240614035333 31 164 0.0 0.0 0.00 0.00 0.00 20 1011.3
20240614034832 31 164 0.0 0.0 0.00 0.00 0.00 19 1011.3
20240614034331 31 164 0.0 0.0 0.00 0.00 0.00 19 1011.2
20240614033829 31 164 0.0 0.0 0.00 0.00 0.00 19 1011.3
20240614033329 32 164 0.0 0.0 0.00 0.00 0.00 19 1011.0
20240614032827 32 164 0.0 0.0 0.00 0.00 0.00 19 1011.1
20240614032325 32 164 0.0 0.0 0.00 0.00 0.00 19 1011.2
20240614031825 32 164 0.0 0.0 0.00 0.00 0.00 19 1011.0
20240614031324 32 166 0.0 0.0 0.00 0.00 0.00 18 1011.0
20240614030822 33 164 0.0 0.0 0.00 0.00 0.00 16 1011.0
20240614030320 33 166 0.0 0.0 0.00 0.00 0.00 15 1011.0
20240614025818 33 167 0.0 0.0 0.00 0.00 0.00 16 1010.9
20240614025317 33 166 0.0 0.0 0.00 0.00 0.00 16 1010.9
20240614024816 33 170 0.0 0.0 0.00 0.00 0.00 15 1010.9
20240614024315 34 173 0.0 0.0 0.00 0.00 0.00 15 1011.1
20240614023814 34 172 0.0 1.6 0.00 0.00 0.00 15 1011.0
20240614023312 34 166 0.0 0.0 0.00 0.00 0.00 15 1010.9
20240614022811 34 166 0.0 0.0 0.00 0.00 0.00 15 1011.0
20240614022310 35 162 0.0 1.6 0.00 0.00 0.00 15 1010.9
20240614021810 35 173 1.6 1.6 0.00 0.00 0.00 14 1010.9
20240614021309 35 174 1.6 3.2 0.00 0.00 0.00 14 1011.2
20240614020808 36 172 1.6 3.2 0.00 0.00 0.00 14 1011.1
20240614020307 36 165 0.0 1.6 0.00 0.00 0.00 14 1011.3
20240614015806 36 140 1.6 4.8 0.00 0.00 0.00 14 1011.1
20240614015306 36 187 3.2 4.8 0.00 0.00 0.00 13 1011.0
20240614014804 37 163 1.6 3.2 0.00 0.00 0.00 13 1010.9
20240614014302 37 169 0.0 1.6 0.00 0.00 0.00 13 1010.9
20240614013800 37 163 3.2 8.0 0.00 0.00 0.00 13 1011.0
20240614013258 37 200 4.8 8.0 0.00 0.00 0.00 13 1011.0
20240614012757 37 163 1.6 4.8 0.00 0.00 0.00 13 1011.2
20240614012254 37 177 1.6 1.6 0.00 0.00 0.00 13 1011.0
20240614011753 37 173 0.0 0.0 0.00 0.00 0.00 13 1011.1
20240614011251 37 148 3.2 4.8 0.00 0.00 0.00 12 1010.9
20240614010751 37 171 4.8 9.7 0.00 0.00 0.00 13 1011.0
20240614010250 37 196 1.6 3.2 0.00 0.00 0.00 13 1011.0
20240614005750 38 90 6.4 9.7 0.00 0.00 0.00 12 1011.0
20240614005248 38 134 3.2 4.8 0.00 0.00 0.00 12 1011.0
20240614004747 38 189 1.6 3.2 0.00 0.00 0.00 13 1011.1
20240614004245 38 197 8.0 12.9 0.00 0.00 0.00 12 1011.0
20240614003743 37 244 8.0 16.1 0.00 0.00 0.00 12 1010.7
20240614003243 37 144 3.2 4.8 0.00 0.00 0.00 13 1011.1
20240614002741 38 320 11.3 14.5 0.00 0.00 0.00 12 1011.1
20240614002237 37 168 4.8 4.8 0.00 0.00 0.00 12 1011.1
20240614001736 37 178 1.6 3.2 0.00 0.00 0.00 12 1011.3
20240614001235 37 171 4.8 4.8 0.00 0.00 0.00 12 1011.2
20240614000733 37 245 6.4 8.0 0.00 0.00 0.00 12 1011.1
20240614000234 37 201 3.2 4.8 0.00 0.00 0.00 12 1011.3
20240613235732 37 165 0.0 0.0 0.00 0.00 0.00 12 1011.3
20240613235231 37 187 3.2 4.8 0.00 0.00 0.00 12 1011.2
20240613234730 37 253 6.4 9.7 0.00 0.00 0.00 12 1011.2
20240613234230 38 207 4.8 8.0 0.00 0.00 0.00 12 1011.4
20240613233729 38 171 4.8 4.8 0.00 0.00 0.00 12 1011.3
20240613233227 39 177 3.2 3.2 0.00 0.00 0.00 12 1011.2
20240613232725 38 167 0.0 1.6 0.00 0.00 0.00 12 1011.3
20240613232224 39 157 4.8 8.0 0.00 0.00 0.00 12 1011.2
20240613231723 40 162 1.6 3.2 0.00 0.00 0.00 11 1011.4
20240613231220 38 152 1.6 3.2 0.00 0.00 0.00 12 1011.1
20240613230719 38 195 3.2 4.8 0.00 0.00 0.00 11 1011.1
20240613230217 38 158 6.4 9.7 0.00 0.00 0.00 11 1011.5
20240613225715 38 179 4.8 4.8 0.00 0.00 0.00 12 1011.4
20240613225213 39 178 8.0 11.3 0.00 0.00 0.00 11 1011.6
20240613224706 38 149 3.2 4.8 0.00 0.00 0.00 13 1011.7
20240613224156 38 152 6.4 8.0 0.00 0.00 0.00 12 1011.7
20240613223654 38 200 4.8 8.0 0.00 0.00 0.00 12 1011.7
20240613223153 38 229 3.2 4.8 0.00 0.00 0.00 12 1012.0
20240613222652 38 168 0.0 1.6 0.00 0.00 0.00 13 1011.9
20240613222152 38 194 9.7 11.3 0.00 0.00 0.00 12 1011.9
20240613221651 38 185 8.0 12.9 0.00 0.00 0.00 12 1012.1
20240613221149 37 164 0.0 0.0 0.00 0.00 0.00 14 1012.4
20240613220649 37 169 1.6 1.6 0.00 0.00 0.00 13 1012.4
20240613220147 37 176 1.6 1.6 0.00 0.00 0.00 12 1012.8
20240613215644 37 167 1.6 4.8 0.00 0.00 0.00 14 1012.0
20240613215142 37 164 1.6 3.2 0.00 0.00 0.00 12 1012.2
20240613214641 37 197 4.8 4.8 0.00 0.00 0.00 13 1012.1
20240613214140 37 227 3.2 4.8 0.00 0.00 0.00 13 1012.2
20240613213638 37 180 1.6 4.8 0.00 0.00 0.00 13 1012.4
20240613213137 37 176 1.6 1.6 0.00 0.00 0.00 13 1012.4
20240613212637 36 152 3.2 3.2 0.00 0.00 0.00 14 1012.4
20240613212136 36 169 0.0 0.0 0.00 0.00 0.00 13 1012.5
20240613211635 36 162 3.2 4.8 0.00 0.00 0.00 13 1012.6
20240613211133 36 232 4.8 9.7 0.00 0.00 0.00 13 1012.6
20240613210632 36 281 6.4 11.3 0.00 0.00 0.00 13 1012.8
20240613210131 36 172 0.0 1.6 0.00 0.00 0.00 13 1013.1
20240613205627 36 165 4.8 8.0 0.00 0.00 0.00 13 1013.2
20240613205125 36 123 6.4 9.7 0.00 0.00 0.00 13 1013.4
20240613204625 37 172 4.8 8.0 0.00 0.00 0.00 13 1013.2
20240613204124 37 150 11.3 16.1 0.00 0.00 0.00 12 1013.3
20240613203623 37 180 8.0 12.9 0.00 0.00 0.00 12 1013.2
20240613203122 37 146 4.8 8.0 0.00 0.00 0.00 13 1013.1
20240613202619 37 298 8.0 11.3 0.00 0.00 0.00 12 1013.1
20240613202118 37 165 1.6 3.2 0.00 0.00 0.00 13 1013.1
20240613201617 37 174 8.0 11.3 0.00 0.00 0.00 13 1013.2
20240613201114 36 209 3.2 8.0 0.00 0.00 0.00 13 1013.2
20240613200613 36 164 3.2 4.8 0.00 0.00 0.00 13 1013.3
20240613200112 37 153 4.8 4.8 0.00 0.00 0.00 13 1013.5
20240613195610 37 249 6.4 9.7 0.00 0.00 0.00 12 1013.5
20240613195109 37 193 6.4 9.7 0.00 0.00 0.00 12 1013.6
20240613194608 36 197 4.8 4.8 0.00 0.00 0.00 13 1013.5
20240613194106 36 200 0.0 1.6 0.00 0.00 0.00 14 1013.6
20240613193603 36 196 1.6 3.2 0.00 0.00 0.00 13 1013.8
20240613193102 36 181 3.2 3.2 0.00 0.00 0.00 13 1014.0
20240613192601 36 175 1.6 3.2 0.00 0.00 0.00 13 1013.6
20240613192100 36 173 4.8 8.0 0.00 0.00 0.00 14 1013.6
20240613191558 36 174 1.6 1.6 0.00 0.00 0.00 13 1013.9
20240613191057 36 179 0.0 0.0 0.00 0.00 0.00 14 1013.9
20240613190555 36 173 0.0 1.6 0.00 0.00 0.00 13 1013.6
20240613190054 37 177 3.2 4.8 0.00 0.00 0.00 13 1013.8
20240613185554 37 164 0.0 0.0 0.00 0.00 0.00 13 1014.0
20240613185053 37 176 4.8 8.0 0.00 0.00 0.00 13 1014.2
20240613184553 37 167 1.6 1.6 0.00 0.00 0.00 14 1014.0
20240613184051 37 167 0.0 0.0 0.00 0.00 0.00 13 1014.1
20240613183549 37 179 1.6 1.6 0.00 0.00 0.00 14 1014.3
20240613183047 37 168 1.6 1.6 0.00 0.00 0.00 14 1014.3
20240613182544 37 184 0.0 1.6 0.00 0.00 0.00 13 1014.2
20240613182044 36 159 1.6 1.6 0.00 0.00 0.00 14 1014.3
20240613181541 37 211 8.0 8.0 0.00 0.00 0.00 13 1014.4
20240613181040 37 90 3.2 4.8 0.00 0.00 0.00 14 1014.2
20240613180540 36 165 1.6 3.2 0.00 0.00 0.00 14 1014.4
20240613180038 37 167 3.2 4.8 0.00 0.00 0.00 14 1014.1
20240613175537 36 173 1.6 4.8 0.00 0.00 0.00 14 1014.3
20240613175035 37 137 1.6 4.8 0.00 0.00 0.00 14 1014.1
20240613174534 36 208 0.0 1.6 0.00 0.00 0.00 15 1014.2
20240613174033 36 180 1.6 3.2 0.00 0.00 0.00 14 1014.2
20240613173532 36 169 1.6 1.6 0.00 0.00 0.00 13 1014.2
20240613173030 36 167 0.0 0.0 0.00 0.00 0.00 15 1014.2
20240613172530 36 164 0.0 0.0 0.00 0.00 0.00 14 1014.3
20240613172029 36 165 0.0 0.0 0.00 0.00 0.00 14 1014.1
20240613171527 35 167 0.0 0.0 0.00 0.00 0.00 14 1014.0
20240613171025 35 165 0.0 0.0 0.00 0.00 0.00 14 1013.9
20240613170524 35 165 0.0 0.0 0.00 0.00 0.00 15 1014.0
20240613170023 35 174 0.0 0.0 0.00 0.00 0.00 15 1014.2
20240613165520 35 179 0.0 1.6 0.00 0.00 0.00 15 1014.2
20240613165019 34 166 0.0 0.0 0.00 0.00 0.00 17 1014.2
20240613164518 35 174 3.2 8.0 0.00 0.00 0.00 15 1014.4
20240613164017 35 172 0.0 0.0 0.00 0.00 0.00 16 1014.4
20240613163516 35 161 0.0 0.0 0.00 0.00 0.00 16 1014.0
20240613163016 35 165 0.0 0.0 0.00 0.00 0.00 17 1014.4
20240613162511 34 161 0.0 0.0 0.00 0.00 0.00 17 1014.1
20240613162010 34 144 0.0 1.6 0.00 0.00 0.00 17 1014.3
20240613161508 34 167 0.0 0.0 0.00 0.00 0.00 19 1014.3
20240613161007 33 182 1.6 3.2 0.00 0.00 0.00 17 1014.3
20240613160505 33 160 0.0 1.6 0.00 0.00 0.00 17 1014.2
20240613160005 32 182 3.2 3.2 0.00 0.00 0.00 18 1014.2
20240613155500 32 172 0.0 1.6 0.00 0.00 0.00 18 1014.4
20240613155000 32 168 0.0 1.6 0.00 0.00 0.00 19 1014.5
20240613154457 31 167 0.0 0.0 0.00 0.00 0.00 21 1014.6
20240613153957 31 165 0.0 0.0 0.00 0.00 0.00 21 1014.4
20240613153455 30 160 0.0 1.6 0.00 0.00 0.00 21 1014.4
20240613152954 30 163 0.0 0.0 0.00 0.00 0.00 21 1014.0
20240613152450 30 161 1.6 3.2 0.00 0.00 0.00 22 1014.2
20240613151950 30 155 0.0 0.0 0.00 0.00 0.00 21 1014.2
20240613151446 29 164 3.2 3.2 0.00 0.00 0.00 20 1014.3
20240613150944 28 170 0.0 0.0 0.00 0.00 0.00 24 1014.2
20240613150442 28 163 0.0 0.0 0.00 0.00 0.00 25 1014.2
20240613145941 28 162 0.0 0.0 0.00 0.00 0.00 25 1014.2
20240613145440 27 165 0.0 0.0 0.00 0.00 0.00 26 1014.2
20240613144939 27 165 0.0 0.0 0.00 0.00 0.00 27 1014.4
20240613144436 27 172 1.6 3.2 0.00 0.00 0.00 26 1014.6
20240613143934 27 166 0.0 0.0 0.00 0.00 0.00 26 1014.2
20240613143432 27 144 1.6 3.2 0.00 0.00 0.00 27 1014.3
20240613142930 27 157 1.6 1.6 0.00 0.00 0.00 28 1014.3
20240613142429 28 157 0.0 0.0 0.00 0.00 0.00 28 1014.0
20240613141928 28 149 1.6 3.2 0.00 0.00 0.00 22 1014.1
20240613141425 28 157 0.0 1.6 0.00 0.00 0.00 23 1014.0
20240613140924 27 165 0.0 0.0 0.00 0.00 0.00 23 1014.4
20240613140424 27 168 0.0 0.0 0.00 0.00 0.00 23 1014.4
20240613135923 26 167 0.0 0.0 0.00 0.00 0.00 25 1014.5
20240613135422 26 147 3.2 3.2 0.00 0.00 0.00 26 1013.6
20240613134922 25 158 0.0 0.0 0.00 0.00 0.00 28 1014.3
20240613134420 25 157 0.0 0.0 0.00 0.00 0.00 27 1014.2
20240613133918 25 163 0.0 0.0 0.00 0.00 0.00 27 1014.2
20240613133418 25 177 1.6 1.6 0.00 0.00 0.00 27 1014.1